Location: Oklahoma City
(35.4680°N, 97.5160°W)
Time: 20:48:15
(UTC-05:00)

ISS - All Passes

Search period start: 18 April 2014 00:00
Search period end: 28 April 2014 00:00
Orbit: 414 x 419 km, 51.6° (Epoch: 18 April)

Date Brightness Start Highest point End Pass type
(mag) Time Alt. Az. Time Alt. Az. Time Alt. Az.
18 Apr - 00:28:51 10° WNW 00:31:55 33° SW 00:34:58 10° SSE night (unlit)
18 Apr - 15:32:43 10° SSW 15:35:44 32° SE 15:38:46 10° ENE daylight
18 Apr - 17:09:46 10° W 17:12:31 23° NNW 17:15:16 10° NNE daylight
18 Apr - 22:04:32 10° N 22:06:38 15° NNE 22:08:44 10° ENE visible
18 Apr - 23:40:21 10° NW 23:43:41 67° SW 23:47:00 10° SE visible
19 Apr - 14:45:15 10° S 14:47:32 17° SE 14:49:49 10° E daylight
19 Apr - 16:20:55 10° WSW 16:24:03 37° NW 16:27:12 10° NNE daylight
19 Apr - 21:17:03 10° N 21:18:01 11° NNE 21:19:00 10° NE visible
19 Apr - 22:52:00 10° NW 22:55:20 62° NE 22:58:39 10° ESE visible
20 Apr - 00:31:07 10° WSW 00:31:39 10° SW 00:32:12 10° SW night (unlit)
20 Apr - 15:32:18 10° SW 15:35:37 70° NW 15:38:57 10° NE daylight
20 Apr - 17:11:39 10° NW 17:12:53 12° NNW 17:14:06 10° N daylight
20 Apr - 22:03:46 10° NNW 22:06:52 34° NE 22:09:58 10° ESE visible
20 Apr - 23:40:57 10° W 23:43:26 19° SW 23:45:54 10° S visible
21 Apr - 14:43:56 10° SW 14:47:12 59° SE 14:50:30 10° NE daylight
21 Apr - 16:21:59 10° WNW 16:24:12 16° NNW 16:26:25 10° NNE daylight
21 Apr - 21:15:38 10° NNW 21:18:18 22° NNE 21:20:58 10° E visible
21 Apr - 22:52:00 10° WNW 22:55:07 36° SW 22:58:13 10° SSE visible
22 Apr - 13:55:53 10° SSW 13:58:49 29° SE 14:01:46 10° ENE daylight
22 Apr - 15:32:44 10° W 15:35:33 25° NNW 15:38:22 10° NNE daylight
22 Apr - 20:27:38 10° N 20:29:37 15° NNE 20:31:35 10° ENE daylight
22 Apr - 22:03:21 10° NW 22:06:41 74° SW 22:10:01 10° SE visible
23 Apr - 13:08:21 10° SSE 13:10:27 16° SE 13:12:34 10° E daylight
23 Apr - 14:43:45 10° WSW 14:46:55 40° NW 14:50:06 10° NE daylight
23 Apr - 19:40:11 10° N 19:40:49 10° NNE 19:41:27 10° NNE daylight
23 Apr - 21:14:51 10° NW 21:18:09 57° NE 21:21:27 10° ESE visible
23 Apr - 22:53:22 10° WSW 22:54:30 11° SW 22:55:38 10° SW visible
24 Apr - 13:55:00 10° SW 13:58:19 77° NW 14:01:40 10° NE daylight
24 Apr - 15:34:07 10° NW 15:35:32 12° NNW 15:36:56 10° N daylight
24 Apr - 20:26:28 10° NNW 20:29:31 32° NE 20:32:33 10° E daylight
24 Apr - 22:03:29 10° WNW 22:06:06 21° SW 22:08:42 10° S visible
25 Apr - 13:06:31 10° SSW 13:09:45 52° SE 13:13:00 10° ENE daylight
25 Apr - 14:44:22 10° WNW 14:46:41 17° NNW 14:49:01 10° NNE daylight
25 Apr - 19:38:11 10° NNW 19:40:45 20° NNE 19:43:19 10° E daylight
25 Apr - 21:14:26 10° WNW 21:17:36 40° SW 21:20:45 10° SSE visible
26 Apr - 12:18:21 10° S 12:21:12 26° SE 12:24:03 10° ENE daylight
26 Apr - 13:55:00 10° W 13:57:52 26° NW 14:00:45 10° NNE daylight
26 Apr - 18:50:04 10° N 18:51:53 14° NNE 18:53:42 10° ENE daylight
26 Apr - 20:25:38 10° NW 20:29:00 83° SW 20:32:19 10° SE daylight
27 Apr - 11:30:48 10° SSE 11:32:40 14° SE 11:34:32 10° E daylight
27 Apr - 13:05:53 10° WSW 13:09:05 45° NW 13:12:18 10° NE daylight
27 Apr - 19:37:00 10° NW 19:40:16 50° NE 19:43:32 10° ESE daylight
27 Apr - 21:15:06 10° W 21:16:39 13° SW 21:18:11 10° SSW visible
